Weather History for Kansas City International, MO

Change the Weather History Date:

Saturday, February 16, 2013

  Actual Average Record
Temperature  
Mean Temperature 26 °F 34 °F  
Max Temperature 34 °F 44 °F 74 °F (1961)
Min Temperature 17 °F 24 °F -8 °F (1979)
Degree Days  
Heating Degree Days 39 31  
Month to date heating degree days 467 535  
Since 1 July heating degree days 3294 3699  
Cooling Degree Days 0 0  
Month to date cooling degree days 0 0  
Year to date cooling degree days 0 0  
Moisture  
Dew Point 18 °F    
Average Humidity 72    
Maximum Humidity 92    
Minimum Humidity 51    
Precipitation  
Precipitation 0.00 in 0.05 in 1.50 in (1911)
Month to date precipitation 0.41 0.79  
Year to date precipitation 1.44 1.86  
Snow  
Snow 0.00 in 0.20 in 1.40 in (2007)
Month to date snowfall 0.2 3.4  
Since 1 July snowfall 4.9 14.2  
Snow Depth 0.00 in    
Sea Level Pressure  
Sea Level Pressure 30.23 in    
Wind  
Wind Speed 8 mph (SW)    
Max Wind Speed 15 mph    
Max Gust Speed 22 mph    
Visibility 10 miles    
Events      
T = Trace of Precipitation, MM = Missing Value Source: NWS Daily Summary

Daily Weather History Graph

Daily Weather History Graph

Search for Another Location

Airport:

Trip Planner

Search our weather history database for the weather conditions in past years. The results will help you decide how hot, cold, wet, or windy it might be!

Date:

Astronomy

Feb. 16, 2013 Rise Set
Actual Time 7:09 AM CST 5:57 PM CST
Civil Twilight 6:41 AM CST 6:24 PM CST
Nautical Twilight 6:10 AM CST 6:56 PM CST
Astronomical Twilight 5:39 AM CST 7:27 PM CST
Moon 10:25 AM CST (2/16) No Moon Set
Length of Visible Light 11h 43m
Length of Day
10h 48m
Waxing Crescent, 39% of the Moon is Illuminated
Feb 16
Waxing Crescent
Feb 17
First Quarter
Feb 25
Full
Mar 4
Last Quarter
Mar 11
New

Hourly Weather History & Observations

Time (CST) Temp. Windchill Dew Point Humidity Pressure Visibility Wind Dir Wind Speed Gust Speed Precip Events Conditions
12:53 AM 24.1 °F 17.0 °F 19.9 °F 84% 30.33 in 10.0 mi NW 5.8 mph - N/A   Overcast
1:53 AM 21.9 °F 14.5 °F 19.0 °F 89% 30.33 in 10.0 mi NNW 5.8 mph - N/A   Mostly Cloudy
2:53 AM 21.0 °F 12.4 °F 15.1 °F 78% 30.33 in 10.0 mi North 6.9 mph - N/A   Mostly Cloudy
3:30 AM 21.2 °F 16.4 °F 15.8 °F 80% 30.29 in 10.0 mi NW 3.5 mph - N/A   Partly Cloudy
3:53 AM 21.0 °F - 15.1 °F 78% 30.33 in 10.0 mi Calm Calm - N/A   Clear
4:53 AM 19.9 °F 13.4 °F 17.1 °F 89% 30.32 in 8.0 mi West 4.6 mph - N/A   Clear
5:53 AM 19.0 °F 12.3 °F 15.1 °F 85% 30.33 in 10.0 mi WNW 4.6 mph - N/A   Scattered Clouds
6:53 AM 19.0 °F 12.3 °F 15.1 °F 85% 30.32 in 9.0 mi WNW 4.6 mph - N/A   Partly Cloudy
7:53 AM 19.9 °F 14.9 °F 16.0 °F 85% 30.33 in 8.0 mi West 3.5 mph - N/A   Mostly Cloudy
8:53 AM 21.9 °F 17.2 °F 17.1 °F 82% 30.32 in 10.0 mi SW 3.5 mph - N/A   Mostly Cloudy
9:53 AM 26.1 °F 17.6 °F 19.0 °F 75% 30.30 in 10.0 mi SW 8.1 mph - N/A   Scattered Clouds
10:53 AM 28.0 °F 18.1 °F 19.0 °F 69% 30.29 in 10.0 mi SW 11.5 mph - N/A   Mostly Cloudy
11:53 AM 30.0 °F 21.1 °F 19.0 °F 64% 30.27 in 10.0 mi SW 10.4 mph - N/A   Mostly Cloudy
12:53 PM 32.0 °F 23.0 °F 19.9 °F 61% 30.22 in 10.0 mi South 11.5 mph - N/A   Overcast
1:53 PM 32.0 °F 23.6 °F 18.0 °F 56% 30.18 in 10.0 mi South 10.4 mph - N/A   Overcast
2:53 PM 32.0 °F 22.1 °F 18.0 °F 56% 30.17 in 10.0 mi SW 13.8 mph - N/A   Overcast
3:53 PM 32.0 °F 23.6 °F 18.0 °F 56% 30.17 in 10.0 mi South 10.4 mph - N/A   Overcast
4:53 PM 32.0 °F 23.6 °F 19.9 °F 61% 30.17 in 10.0 mi SSW 10.4 mph - N/A   Overcast
5:53 PM 32.0 °F 26.4 °F 21.0 °F 64% 30.16 in 10.0 mi South 5.8 mph - N/A   Overcast
6:53 PM 32.0 °F 25.6 °F 19.0 °F 59% 30.14 in 10.0 mi South 6.9 mph - N/A   Overcast
7:53 PM 32.0 °F 26.4 °F 17.1 °F 54% 30.13 in 10.0 mi SSE 5.8 mph - N/A   Overcast
8:53 PM 33.1 °F 26.1 °F 17.1 °F 52% 30.12 in 10.0 mi SE 8.1 mph - N/A   Overcast
9:53 PM 33.1 °F 24.4 °F 18.0 °F 54% 30.11 in 10.0 mi SSE 11.5 mph - N/A   Overcast
10:53 PM 33.1 °F 24.4 °F 18.0 °F 54% 30.10 in 10.0 mi SSE 11.5 mph - N/A   Overcast
11:53 PM 33.1 °F 25.5 °F 18.0 °F 54% 30.08 in 10.0 mi South 9.2 mph - N/A   Overcast